Regional Weather Roundup
Issued by NWS

Home | Current Version | Previous Version | Graphics & Text | Print | Product List | Glossary Off
Versions: 1 2 3 4 5 6 7 8 9 10 11 12 13 14 15 16 17 18 19 20 21 22 23 24 25 26 27 28 29 30 31 32 33 34 35 36 37 38 39 40 41 42 43 44 45 46 47 48 49 50

000
ASUS43 KFSD 181502
RWRSD

WEATHER ROUNDUP FOR SOUTH DAKOTA
NATIONAL WEATHER SERVICE SIOUX FALLS SD
1000 AM CDT FRI APR 18 2014

NOTE: "FAIR" INDICATES FEW OR NO CLOUDS BELOW 12,000 FEET WITH NO
SIGNIFICANT WEATHER AND/OR OBSTRUCTIONS TO VISIBILITY.


SDZ001>005-009-010-012>017-181600-
NORTHWEST AND NORTH CENTRAL SOUTH DAKOTA

CITY           SKY/WX    TMP DP  RH WIND       PRES   REMARKS
FAITH            N/A     43  32  65 SE15      29.85F
MOBRIDGE       SUNNY     43  29  57 SE23      29.93F
$$

SDZ012>016-024>037-041>051-057-063-072>074-181600-
SOUTHWEST AND SOUTH CENTRAL SOUTH DAKOTA

CITY           SKY/WX    TMP DP  RH WIND       PRES   REMARKS
RAPID CTY ARPT PTSUNNY   44  38  79 SE9       29.80F
PIERRE         MOSUNNY   47  32  56 SE20      29.90F
CUSTER         PTSUNNY   50  28  42 W8        29.87S
ELLSWORTH AFB  MOSUNNY   47  38  73 S9        29.79F
PHILIP         PTSUNNY   52  39  61 SE9       29.85F
PINE RIDGE     PTSUNNY   51  38  60 S16G24    29.86F
WINNER         FAIR      55  37  50 S25G39    29.92R
$$

SDZ004>011-016>023-039-040-181600-
NORTHEAST SOUTH DAKOTA

CITY           SKY/WX    TMP DP  RH WIND       PRES   REMARKS
ABERDEEN       MOSUNNY   46  30  53 SE20G31   30.08F
WATERTOWN      CLOUDY    37  29  72 SE13G22   30.16F
$$

SDZ017-020-022-023-036>040-048>070-181600-
SOUTHEAST SOUTH DAKOTA

CITY           SKY/WX    TMP DP  RH WIND       PRES   REMARKS
SIOUX FALLS    CLOUDY    43  32  65 SE14      30.20F
HURON          MOSUNNY   47  30  51 SE20G29   30.07F
CHAMBERLAIN      N/A     53  36  52 S24       29.97F
MITCHELL       MOSUNNY   47  32  56 SE21      30.09F
YANKTON        MOSUNNY   48  32  53 SE15G22   30.17F
$$

ABBREVIATIONS USED IN REMARKS
   TC - TEMPERATURE IN CELSIUS
  WCI - WIND CHILL INDEX
   HX - HEAT INDEX
  VSB - VISIBILITY




USA.gov is the U.S. government's official web portal to all federal, state and local government web resources and services.